sat.trackr.live / text

‹ back to catalog

STARLINK-36278

NORAD 68685 · 2026-077Z

PAYLOAD ACTIVE UNKNOWN

§ Identity

Operator
Country
US
Launch date
2026-04-11
Launch site
AFWTR
Launch vehicle
Mass (kg)
RCS (m²)

Purposes: comms

External: N2YO · Heavens-Above · Gunter

§ Orbital elements

Epoch: 2026-09-20T02:54:11.344896Z

Period
93.91 min
Inclination
97.2832°
Eccentricity
0.0001329
Mean motion
15.33457996 rev/d
Perigee alt
464.6 km
Apogee alt
466.4 km
Semi-major
6,843.6 km
B*
6.7219e-4
RAAN
136.0513°
Arg perigee
88.3420°
Mean anomaly
271.7975°
Rev number
2,515

§ Raw data

STARLINK-362781 68685U 26077Z   26263.12096464  .00021697  00000+0  67219-3 0  99982 68685  97.2832 136.0513 0001329  88.3420 271.7975 15.33457996 25158

JSON: /api/v1/satellites/68685 · /tle

For live sub-satellite position, see the globe view (requires WebGL).

§ Visibility from observer

Set your observer location to see the next 7 days of passes ≥ 10°. The values pass through the URL so the page stays shareable.

No JS? Fill the form by hand. The geolocation button needs JavaScript.